| time (UTC) | temp F | wind direction | speed MPH | gust MPH | rain 1hr in | rain 24hr in | rain mn in | humidity % | barometer mb |
| 20260505171249 | 60 | 350 | 2.0 | 2.0 | 0.00 | 0.92 | 0.92 | 98 | 1005.0 |
| 20260505170746 | 60 | 2 | 3.0 | 5.0 | 0.00 | 0.92 | 0.92 | 98 | 1005.1 |
| 20260505170243 | 60 | 343 | 2.0 | 2.0 | 0.00 | 0.92 | 0.92 | 98 | 1005.0 |
| 20260505165738 | 60 | 340 | 1.0 | 2.0 | 0.00 | 0.92 | 0.92 | 98 | 1005.2 |
| 20260505165235 | 60 | 336 | 3.0 | 5.0 | 0.00 | 0.92 | 0.92 | 98 | 1005.2 |
| 20260505164730 | 60 | 317 | 3.0 | 3.0 | 0.00 | 0.92 | 0.92 | 98 | 1004.9 |
| 20260505164228 | 60 | 317 | 1.0 | 1.0 | 0.00 | 0.92 | 0.92 | 98 | 1004.9 |
| 20260505163726 | 61 | 22 | 1.0 | 2.0 | 0.00 | 0.92 | 0.92 | 98 | 1004.8 |
| 20260505163224 | 60 | 22 | 2.0 | 2.0 | 0.00 | 0.92 | 0.92 | 98 | 1004.9 |
| 20260505162721 | 61 | 23 | 2.0 | 2.0 | 0.00 | 0.92 | 0.92 | 98 | 1005.1 |
| 20260505162218 | 61 | 23 | 1.0 | 1.0 | 0.00 | 0.92 | 0.92 | 98 | 1005.1 |
| 20260505161715 | 61 | 23 | 2.0 | 2.0 | 0.00 | 0.92 | 0.92 | 98 | 1005.0 |
| 20260505161213 | 61 | 25 | 2.0 | 2.0 | 0.00 | 0.92 | 0.92 | 98 | 1005.0 |
| 20260505160710 | 61 | 32 | 0.0 | 0.0 | 0.00 | 0.92 | 0.92 | 98 | 1005.1 |
| 20260505160207 | 61 | 32 | 0.0 | 0.0 | 0.00 | 0.92 | 0.92 | 98 | 1004.7 |
| 20260505153146 | 60 | 34 | 1.0 | 1.0 | 0.00 | 0.92 | 0.92 | 97 | 1004.4 |
| 20260505152643 | 60 | 31 | 1.0 | 1.0 | 0.00 | 0.92 | 0.92 | 97 | 1004.5 |
| 20260505152139 | 61 | 24 | 0.0 | 0.0 | 0.00 | 0.92 | 0.92 | 97 | 1004.6 |
| 20260505151634 | 60 | 343 | 3.0 | 3.0 | 0.00 | 0.92 | 0.92 | 97 | 1004.5 |
| 20260505151132 | 61 | 342 | 2.0 | 2.0 | 0.00 | 0.92 | 0.92 | 97 | 1004.6 |
| 20260505150628 | 61 | 341 | 1.0 | 2.0 | 0.00 | 0.92 | 0.92 | 97 | 1004.7 |
| 20260505150125 | 61 | 341 | 0.0 | 0.0 | 0.00 | 0.92 | 0.92 | 97 | 1004.7 |
| 20260505140553 | 60 | 294 | 0.0 | 0.0 | 0.00 | 0.92 | 0.92 | 97 | 1005.3 |
| 20260505125007 | 59 | 274 | 1.0 | 2.0 | 0.00 | 0.92 | 0.92 | 97 | 1004.9 |
| 20260505124504 | 59 | 274 | 1.0 | 2.0 | 0.07 | 0.92 | 0.92 | 97 | 1004.7 |
| 20260505124000 | 59 | 273 | 1.0 | 1.0 | 0.07 | 0.92 | 0.92 | 97 | 1004.6 |
| 20260505123456 | 59 | 273 | 0.0 | 1.0 | 0.00 | 0.91 | 0.91 | 97 | 1004.3 |
| 20260505122952 | 59 | 241 | 0.0 | 0.0 | 0.00 | 0.91 | 0.91 | 97 | 1004.5 |
| 20260505122450 | 59 | 241 | 1.0 | 1.0 | 0.00 | 0.91 | 0.91 | 97 | 1004.3 |
| 20260505121947 | 59 | 225 | 1.0 | 2.0 | 0.00 | 0.91 | 0.91 | 97 | 1004.2 |
| 20260505121443 | 59 | 208 | 1.0 | 1.0 | 0.00 | 0.91 | 0.91 | 97 | 1003.9 |
| 20260505120939 | 59 | 223 | 1.0 | 2.0 | 0.00 | 0.91 | 0.91 | 97 | 1004.1 |
| 20260505120436 | 59 | 223 | 1.0 | 1.0 | 0.00 | 0.91 | 0.91 | 97 | 1004.1 |
| 20260505115935 | 59 | 223 | 0.0 | 0.0 | 0.00 | 0.91 | 0.91 | 97 | 1004.0 |
| 20260505115432 | 59 | 222 | 2.0 | 2.0 | 0.00 | 0.91 | 0.91 | 97 | 1003.9 |
| 20260505114930 | 59 | 222 | 1.0 | 2.0 | 0.00 | 0.91 | 0.91 | 97 | 1003.7 |
| 20260505114426 | 59 | 199 | 2.0 | 2.0 | 0.00 | 0.91 | 0.91 | 97 | 1003.6 |
| 20260505113922 | 59 | 209 | 1.0 | 1.0 | 0.00 | 0.91 | 0.91 | 97 | 1003.7 |
| 20260505113419 | 59 | 202 | 1.0 | 2.0 | 0.00 | 0.91 | 0.91 | 97 | 1003.5 |
| 20260505112915 | 59 | 233 | 1.0 | 1.0 | 0.00 | 0.91 | 0.91 | 97 | 1004.0 |
| 20260505112413 | 59 | 212 | 4.0 | 5.0 | 0.00 | 0.91 | 0.91 | 97 | 1003.6 |
| 20260505111908 | 59 | 220 | 0.0 | 0.0 | 0.00 | 0.91 | 0.91 | 97 | 1003.7 |
| 20260505111403 | 59 | 219 | 2.0 | 3.0 | 0.00 | 0.91 | 0.91 | 97 | 1003.6 |
| 20260505110900 | 59 | 212 | 0.0 | 1.0 | 0.00 | 0.91 | 0.91 | 97 | 1003.8 |
| 20260505110357 | 59 | 211 | 2.0 | 2.0 | 0.00 | 0.91 | 0.91 | 97 | 1004.0 |
| 20260505101827 | 59 | 208 | 1.0 | 1.0 | 0.00 | 0.90 | 0.90 | 97 | 1004.6 |
| 20260505101322 | 59 | 205 | 3.0 | 3.0 | 0.07 | 0.90 | 0.90 | 97 | 1004.6 |
| 20260505100818 | 59 | 206 | 1.0 | 2.0 | 0.26 | 0.90 | 0.90 | 97 | 1004.7 |
| 20260505100315 | 59 | 206 | 0.0 | 0.0 | 0.47 | 0.89 | 0.89 | 97 | 1004.8 |
| 20260505095811 | 59 | 205 | 0.0 | 0.0 | 0.42 | 0.87 | 0.87 | 97 | 1004.9 |
| 20260505095309 | 60 | 299 | 2.0 | 2.0 | 0.31 | 0.81 | 0.81 | 97 | 1004.6 |
| 20260505094804 | 60 | 299 | 0.0 | 0.0 | 0.31 | 0.80 | 0.80 | 97 | 1004.8 |
| 20260505094301 | 59 | 299 | 0.0 | 0.0 | 0.19 | 0.77 | 0.77 | 97 | 1005.0 |
| 20260505093757 | 60 | 300 | 0.0 | 0.0 | 0.05 | 0.75 | 0.75 | 97 | 1004.9 |
| 20260505093255 | 60 | 300 | 0.0 | 0.0 | 0.47 | 0.74 | 0.74 | 97 | 1005.3 |
| 20260505092751 | 60 | 300 | 0.0 | 0.0 | 0.73 | 0.74 | 0.74 | 97 | 1005.2 |
| 20260505092249 | 60 | 301 | 0.0 | 0.0 | 0.42 | 0.67 | 0.67 | 97 | 1005.1 |
| 20260505091746 | 60 | 301 | 0.0 | 0.0 | 0.17 | 0.62 | 0.62 | 97 | 1005.0 |
| 20260505091244 | 60 | 301 | 0.0 | 0.0 | 0.17 | 0.60 | 0.60 | 97 | 1004.7 |
| 20260505090737 | 60 | 301 | 0.0 | 0.0 | 0.31 | 0.59 | 0.59 | 97 | 1004.8 |
| 20260505090235 | 60 | 301 | 0.0 | 0.0 | 0.19 | 0.57 | 0.57 | 97 | 1004.6 |
| 20260505085732 | 60 | 301 | 0.0 | 0.0 | 0.05 | 0.54 | 0.54 | 96 | 1004.9 |
| 20260505085230 | 60 | 301 | 0.0 | 0.0 | 0.24 | 0.54 | 0.54 | 96 | 1005.6 |
| 20260505084727 | 60 | 301 | 0.0 | 0.0 | 0.19 | 0.53 | 0.53 | 96 | 1004.3 |
| 20260505084226 | 60 | 300 | 0.0 | 0.0 | 0.14 | 0.51 | 0.51 | 96 | 1004.0 |
| 20260505083722 | 60 | 300 | 0.0 | 0.0 | 0.12 | 0.50 | 0.50 | 96 | 1004.7 |
| 20260505083219 | 60 | 300 | 0.0 | 0.0 | 0.12 | 0.49 | 0.49 | 96 | 1004.9 |
| 20260505082715 | 60 | 300 | 0.0 | 0.0 | 0.31 | 0.48 | 0.48 | 96 | 1004.8 |
| 20260505082212 | 60 | 300 | 0.0 | 0.0 | 0.35 | 0.47 | 0.47 | 96 | 1004.7 |
| 20260505081707 | 60 | 300 | 0.0 | 0.0 | 0.24 | 0.44 | 0.44 | 96 | 1005.2 |
| 20260505081205 | 60 | 301 | 0.0 | 0.0 | 0.35 | 0.41 | 0.41 | 96 | 1005.2 |
| 20260505080703 | 60 | 301 | 0.0 | 0.0 | 0.54 | 0.40 | 0.40 | 96 | 1005.3 |
| 20260505080158 | 60 | 302 | 0.0 | 0.0 | 0.52 | 0.36 | 0.36 | 96 | 1004.9 |
| 20260505075654 | 60 | 302 | 0.0 | 0.0 | 0.61 | 0.31 | 0.31 | 95 | 1005.1 |
| 20260505075152 | 60 | 302 | 1.0 | 2.0 | 0.92 | 0.27 | 0.27 | 95 | 1005.8 |
| 20260505074648 | 60 | 302 | 0.0 | 1.0 | 0.85 | 0.20 | 0.20 | 95 | 1005.9 |
| 20260505074145 | 60 | 284 | 0.0 | 0.0 | 0.54 | 0.13 | 0.13 | 95 | 1006.0 |
| 20260505073643 | 60 | 284 | 0.0 | 1.0 | 0.17 | 0.06 | 0.06 | 94 | 1005.7 |
| 20260505073141 | 60 | 284 | 0.0 | 0.0 | 0.12 | 0.04 | 0.04 | 93 | 1005.6 |
| 20260505072636 | 60 | 284 | 0.0 | 0.0 | 0.07 | 0.03 | 0.03 | 92 | 1005.0 |
| 20260505072133 | 61 | 284 | 1.0 | 1.0 | 0.05 | 0.02 | 0.02 | 91 | 1005.1 |
| 20260505071628 | 61 | 284 | 0.0 | 0.0 | 0.05 | 0.02 | 0.02 | 90 | 1005.6 |
| 20260505071127 | 61 | 284 | 1.0 | 1.0 | 0.00 | 0.01 | 0.01 | 88 | 1005.0 |
| 20260505070624 | 61 | 283 | 0.0 | 0.0 | 0.00 | 0.01 | 0.01 | 87 | 1005.1 |
| 20260505070120 | 62 | 284 | 1.0 | 2.0 | 0.00 | 0.01 | 0.01 | 86 | 1005.2 |
| 20260505065616 | 63 | 230 | 1.0 | 2.0 | 0.07 | 0.01 | 0.01 | 82 | 1005.3 |
| 20260505065113 | 64 | 210 | 0.0 | 1.0 | 0.07 | 0.01 | 0.01 | 81 | 1004.7 |
| 20260505064610 | 64 | 240 | 1.0 | 2.0 | 0.00 | 0.00 | 0.00 | 82 | 1004.3 |
| 20260505064108 | 65 | 241 | 1.0 | 2.0 | 0.00 | 0.00 | 0.00 | 76 | 1004.5 |
| 20260505063605 | 65 | 263 | 3.0 | 3.0 | 0.00 | 0.00 | 0.00 | 74 | 1004.9 |
| 20260505063101 | 65 | 254 | 3.0 | 5.0 | 0.00 | 0.00 | 0.00 | 74 | 1005.0 |
| 20260505062557 | 66 | 225 | 1.0 | 1.0 | 0.00 | 0.00 | 0.00 | 73 | 1005.4 |
| 20260505062055 | 66 | 226 | 2.0 | 2.0 | 0.00 | 0.00 | 0.00 | 72 | 1005.1 |
| 20260505061552 | 66 | 257 | 6.0 | 8.0 | 0.00 | 0.00 | 0.00 | 71 | 1005.3 |
| 20260505061050 | 66 | 219 | 4.0 | 7.0 | 0.00 | 0.00 | 0.00 | 72 | 1005.1 |
| 20260505060547 | 66 | 213 | 3.0 | 3.0 | 0.00 | 0.00 | 0.00 | 72 | 1005.3 |
| 20260505060044 | 66 | 228 | 3.0 | 3.0 | 0.00 | 0.00 | 0.00 | 71 | 1005.3 |
| 20260505055539 | 66 | 224 | 3.0 | 3.0 | 0.00 | 0.00 | 0.00 | 71 | 1005.3 |
| 20260505055036 | 66 | 231 | 3.0 | 6.0 | 0.00 | 0.00 | 0.00 | 71 | 1005.4 |
| 20260505054533 | 66 | 222 | 7.0 | 8.0 | 0.00 | 0.00 | 0.00 | 71 | 1005.2 |
| 20260505054032 | 66 | 237 | 5.0 | 6.0 | 0.00 | 0.00 | 0.00 | 71 | 1005.2 |
| 20260505053528 | 66 | 239 | 3.0 | 6.0 | 0.00 | 0.00 | 0.00 | 71 | 1005.1 |
| 20260505053025 | 66 | 224 | 8.0 | 9.0 | 0.00 | 0.00 | 0.00 | 72 | 1004.8 |
| 20260505052522 | 66 | 221 | 5.0 | 7.0 | 0.00 | 0.00 | 0.00 | 71 | 1005.0 |
| 20260505052019 | 66 | 225 | 7.0 | 8.0 | 0.00 | 0.00 | 0.00 | 71 | 1004.9 |
| 20260505051516 | 66 | 198 | 7.0 | 8.0 | 0.00 | 0.00 | 0.00 | 71 | 1004.7 |
| 20260505051014 | 66 | 184 | 5.0 | 9.0 | 0.00 | 0.00 | 0.00 | 71 | 1004.6 |
| 20260505050511 | 66 | 176 | 8.0 | 9.0 | 0.00 | 0.00 | 0.00 | 70 | 1004.7 |
| 20260505041434 | 66 | 205 | 4.0 | 6.0 | 0.00 | 0.00 | 0.00 | 70 | 1005.6 |
| 20260505040931 | 66 | 165 | 6.0 | 7.0 | 0.00 | 0.00 | 0.00 | 70 | 1005.7 |
| 20260505040428 | 66 | 227 | 6.0 | 8.0 | 0.00 | 0.00 | 0.00 | 70 | 1005.6 |
| 20260505035925 | 67 | 194 | 3.0 | 5.0 | 0.00 | 0.00 | 0.00 | 69 | 1005.9 |
| 20260505035421 | 67 | 232 | 7.0 | 8.0 | 0.00 | 0.00 | 0.00 | 69 | 1006.0 |
| 20260505034919 | 67 | 221 | 4.0 | 5.0 | 0.00 | 0.00 | 0.00 | 68 | 1005.9 |
| 20260505034415 | 67 | 169 | 5.0 | 6.0 | 0.00 | 0.00 | 0.00 | 69 | 1006.1 |
| 20260505033912 | 67 | 226 | 8.0 | 9.0 | 0.00 | 0.00 | 0.00 | 68 | 1005.8 |
| 20260505033409 | 67 | 211 | 3.0 | 6.0 | 0.00 | 0.00 | 0.00 | 68 | 1005.7 |
| 20260505032907 | 68 | 202 | 5.0 | 6.0 | 0.00 | 0.00 | 0.00 | 68 | 1005.8 |
| 20260505032403 | 68 | 207 | 5.0 | 6.0 | 0.00 | 0.00 | 0.00 | 67 | 1005.9 |
| 20260505031900 | 68 | 243 | 3.0 | 5.0 | 0.00 | 0.00 | 0.00 | 67 | 1006.3 |
| 20260505031357 | 68 | 208 | 4.0 | 6.0 | 0.00 | 0.00 | 0.00 | 67 | 1006.1 |
| 20260505030854 | 68 | 201 | 3.0 | 3.0 | 0.00 | 0.00 | 0.00 | 67 | 1006.1 |
| 20260505030350 | 68 | 206 | 4.0 | 7.0 | 0.00 | 0.00 | 0.00 | 66 | 1006.2 |
| 20260505025846 | 68 | 209 | 3.0 | 3.0 | 0.00 | 0.00 | 0.00 | 66 | 1006.1 |
| 20260505025344 | 68 | 185 | 5.0 | 6.0 | 0.00 | 0.00 | 0.00 | 66 | 1006.1 |
| 20260505024842 | 68 | 197 | 1.0 | 1.0 | 0.00 | 0.00 | 0.00 | 66 | 1005.9 |
| 20260505024340 | 68 | 202 | 2.0 | 2.0 | 0.00 | 0.00 | 0.00 | 66 | 1005.8 |
| 20260505023836 | 69 | 227 | 3.0 | 5.0 | 0.00 | 0.00 | 0.00 | 65 | 1006.0 |
| 20260505023333 | 69 | 215 | 4.0 | 6.0 | 0.00 | 0.00 | 0.00 | 64 | 1005.9 |
| 20260505022830 | 69 | 200 | 1.0 | 2.0 | 0.00 | 0.00 | 0.00 | 64 | 1005.9 |
| 20260505022327 | 69 | 245 | 4.0 | 7.0 | 0.00 | 0.00 | 0.00 | 64 | 1005.8 |
| 20260505021825 | 69 | 224 | 3.0 | 3.0 | 0.00 | 0.00 | 0.00 | 64 | 1005.6 |
| 20260505021321 | 69 | 243 | 3.0 | 5.0 | 0.00 | 0.00 | 0.00 | 63 | 1005.6 |
| 20260505020817 | 69 | 192 | 5.0 | 7.0 | 0.00 | 0.00 | 0.00 | 63 | 1005.6 |
| 20260505020313 | 69 | 226 | 4.0 | 6.0 | 0.00 | 0.00 | 0.00 | 63 | 1005.3 |
| 20260505015809 | 69 | 214 | 3.0 | 5.0 | 0.00 | 0.00 | 0.00 | 63 | 1005.4 |
| 20260505015307 | 70 | 208 | 1.0 | 2.0 | 0.00 | 0.00 | 0.00 | 62 | 1005.3 |
| 20260505014804 | 69 | 214 | 3.0 | 5.0 | 0.00 | 0.00 | 0.00 | 62 | 1005.1 |
| 20260505014301 | 70 | 164 | 1.0 | 2.0 | 0.00 | 0.00 | 0.00 | 61 | 1005.1 |
| 20260505013757 | 70 | 173 | 4.0 | 6.0 | 0.00 | 0.00 | 0.00 | 61 | 1005.0 |
| 20260505013255 | 70 | 228 | 6.0 | 8.0 | 0.00 | 0.00 | 0.00 | 61 | 1004.9 |
| 20260505012753 | 70 | 229 | 5.0 | 8.0 | 0.00 | 0.00 | 0.00 | 61 | 1004.9 |
| 20260505012250 | 71 | 264 | 6.0 | 9.0 | 0.00 | 0.00 | 0.00 | 60 | 1005.0 |
| 20260505011746 | 71 | 198 | 11.0 | 11.0 | 0.00 | 0.00 | 0.00 | 60 | 1004.8 |
| 20260505011243 | 71 | 243 | 10.0 | 10.0 | 0.00 | 0.00 | 0.00 | 60 | 1005.0 |
| 20260505010739 | 71 | 210 | 7.0 | 8.0 | 0.00 | 0.00 | 0.00 | 59 | 1004.9 |
| 20260505010235 | 71 | 200 | 5.0 | 9.0 | 0.00 | 0.00 | 0.00 | 59 | 1004.8 |
| 20260505005731 | 71 | 216 | 9.0 | 13.0 | 0.00 | 0.00 | 0.00 | 58 | 1004.7 |
| 20260505005228 | 71 | 228 | 16.0 | 21.0 | 0.00 | 0.00 | 0.00 | 58 | 1004.5 |
| 20260505004726 | 72 | 231 | 13.0 | 15.0 | 0.00 | 0.00 | 0.00 | 58 | 1004.7 |
| 20260505004222 | 72 | 183 | 7.0 | 10.0 | 0.00 | 0.00 | 0.00 | 58 | 1004.5 |
| 20260505003719 | 72 | 139 | 9.0 | 15.0 | 0.00 | 0.00 | 0.00 | 58 | 1004.6 |
| 20260505003217 | 72 | 188 | 8.0 | 13.0 | 0.00 | 0.00 | 0.00 | 58 | 1004.7 |
| 20260505002713 | 73 | 220 | 7.0 | 14.0 | 0.00 | 0.00 | 0.00 | 58 | 1004.4 |
| 20260505002211 | 73 | 261 | 8.0 | 18.0 | 0.00 | 0.00 | 0.00 | 58 | 1004.6 |
| 20260505001708 | 73 | 192 | 6.0 | 8.0 | 0.00 | 0.00 | 0.00 | 57 | 1004.4 |
| 20260505001205 | 73 | 195 | 6.0 | 8.0 | 0.00 | 0.00 | 0.00 | 58 | 1004.4 |
| 20260505000702 | 73 | 225 | 8.0 | 13.0 | 0.00 | 0.00 | 0.00 | 57 | 1004.4 |
| 20260505000200 | 74 | 230 | 5.0 | 13.0 | 0.00 | 0.00 | 0.00 | 56 | 1004.4 |
| 20260504235656 | 74 | 237 | 10.0 | 15.0 | 0.00 | 0.00 | 0.00 | 56 | 1004.3 |
| 20260504235153 | 74 | 163 | 5.0 | 7.0 | 0.00 | 0.00 | 0.00 | 55 | 1004.5 |
| 20260504234650 | 74 | 259 | 5.0 | 9.0 | 0.00 | 0.00 | 0.00 | 54 | 1004.5 |
| 20260504234147 | 74 | 247 | 7.0 | 10.0 | 0.00 | 0.00 | 0.00 | 54 | 1004.2 |
| 20260504233643 | 75 | 217 | 3.0 | 3.0 | 0.00 | 0.00 | 0.00 | 54 | 1004.3 |
| 20260504233139 | 75 | 184 | 9.0 | 15.0 | 0.00 | 0.00 | 0.00 | 53 | 1004.4 |
| 20260504232637 | 75 | 260 | 14.0 | 17.0 | 0.00 | 0.00 | 0.00 | 52 | 1004.3 |
| 20260504232134 | 75 | 219 | 7.0 | 9.0 | 0.00 | 0.00 | 0.00 | 53 | 1004.5 |
| 20260504231630 | 75 | 222 | 10.0 | 14.0 | 0.00 | 0.00 | 0.00 | 53 | 1004.3 |
| 20260504231127 | 75 | 201 | 3.0 | 5.0 | 0.00 | 0.00 | 0.00 | 52 | 1004.4 |
| 20260504230623 | 75 | 197 | 9.0 | 10.0 | 0.00 | 0.00 | 0.00 | 52 | 1004.3 |
| 20260504230122 | 75 | 219 | 4.0 | 6.0 | 0.00 | 0.00 | 0.00 | 53 | 1004.4 |
| 20260504225619 | 75 | 201 | 6.0 | 9.0 | 0.00 | 0.00 | 0.00 | 52 | 1004.4 |
| 20260504225115 | 75 | 227 | 5.0 | 8.0 | 0.00 | 0.00 | 0.00 | 53 | 1004.5 |
| 20260504224612 | 75 | 171 | 5.0 | 9.0 | 0.00 | 0.00 | 0.00 | 53 | 1004.4 |
| 20260504224109 | 76 | 197 | 5.0 | 9.0 | 0.00 | 0.00 | 0.00 | 52 | 1004.4 |
| 20260504223606 | 76 | 231 | 7.0 | 10.0 | 0.00 | 0.00 | 0.00 | 52 | 1004.4 |
| 20260504223102 | 76 | 209 | 8.0 | 9.0 | 0.00 | 0.00 | 0.00 | 51 | 1004.7 |
| 20260504222559 | 76 | 212 | 10.0 | 14.0 | 0.00 | 0.00 | 0.00 | 51 | 1004.7 |
| 20260504222056 | 76 | 234 | 3.0 | 7.0 | 0.00 | 0.00 | 0.00 | 52 | 1004.6 |
| 20260504221553 | 76 | 249 | 10.0 | 18.0 | 0.00 | 0.00 | 0.00 | 51 | 1004.8 |
| 20260504221050 | 76 | 209 | 5.0 | 10.0 | 0.00 | 0.00 | 0.00 | 51 | 1004.8 |
| 20260504220547 | 76 | 234 | 11.0 | 17.0 | 0.00 | 0.00 | 0.00 | 50 | 1004.8 |
| 20260504220044 | 76 | 149 | 6.0 | 11.0 | 0.00 | 0.00 | 0.00 | 50 | 1004.8 |
| 20260504215540 | 76 | 201 | 10.0 | 15.0 | 0.00 | 0.00 | 0.00 | 49 | 1005.1 |
| 20260504215038 | 76 | 211 | 10.0 | 13.0 | 0.00 | 0.00 | 0.00 | 49 | 1004.9 |
| 20260504214533 | 76 | 200 | 3.0 | 5.0 | 0.00 | 0.00 | 0.00 | 50 | 1004.9 |
| 20260504214030 | 76 | 178 | 7.0 | 10.0 | 0.00 | 0.00 | 0.00 | 49 | 1004.9 |
| 20260504213527 | 77 | 233 | 8.0 | 14.0 | 0.00 | 0.00 | 0.00 | 50 | 1005.0 |
| 20260504213024 | 77 | 260 | 12.0 | 22.0 | 0.00 | 0.00 | 0.00 | 49 | 1005.0 |
| 20260504212519 | 76 | 220 | 12.0 | 15.0 | 0.00 | 0.00 | 0.00 | 49 | 1005.2 |
| 20260504212017 | 76 | 221 | 17.0 | 21.0 | 0.00 | 0.00 | 0.00 | 49 | 1005.2 |
| 20260504211514 | 76 | 212 | 10.0 | 13.0 | 0.00 | 0.00 | 0.00 | 50 | 1004.8 |
| 20260504211011 | 77 | 183 | 8.0 | 13.0 | 0.00 | 0.00 | 0.00 | 48 | 1005.2 |
| 20260504210507 | 77 | 231 | 10.0 | 13.0 | 0.00 | 0.00 | 0.00 | 49 | 1005.3 |
| 20260504210005 | 77 | 256 | 12.0 | 20.0 | 0.00 | 0.00 | 0.00 | 48 | 1005.4 |
| 20260504205502 | 78 | 225 | 6.0 | 9.0 | 0.00 | 0.00 | 0.00 | 49 | 1005.2 |
| 20260504205000 | 77 | 228 | 7.0 | 11.0 | 0.00 | 0.00 | 0.00 | 48 | 1005.4 |
| 20260504204458 | 77 | 105 | 10.0 | 13.0 | 0.00 | 0.00 | 0.00 | 48 | 1005.7 |
| 20260504203957 | 77 | 138 | 15.0 | 23.0 | 0.00 | 0.00 | 0.00 | 46 | 1005.6 |
| 20260504203454 | 77 | 135 | 9.0 | 10.0 | 0.00 | 0.00 | 0.00 | 48 | 1005.6 |
| 20260504202950 | 78 | 196 | 11.0 | 18.0 | 0.00 | 0.00 | 0.00 | 48 | 1005.8 |
| 20260504202447 | 78 | 188 | 1.0 | 5.0 | 0.00 | 0.00 | 0.00 | 48 | 1005.7 |
| 20260504201944 | 77 | 201 | 8.0 | 13.0 | 0.00 | 0.00 | 0.00 | 48 | 1005.7 |
| 20260504201441 | 77 | 206 | 9.0 | 13.0 | 0.00 | 0.00 | 0.00 | 49 | 1005.8 |
| 20260504200939 | 77 | 229 | 15.0 | 23.0 | 0.00 | 0.00 | 0.00 | 48 | 1005.8 |
| 20260504200435 | 78 | 250 | 12.0 | 21.0 | 0.00 | 0.00 | 0.00 | 48 | 1006.0 |
| 20260504195932 | 77 | 238 | 10.0 | 17.0 | 0.00 | 0.00 | 0.00 | 48 | 1006.1 |
| 20260504195428 | 77 | 208 | 15.0 | 18.0 | 0.00 | 0.00 | 0.00 | 48 | 1006.2 |
| 20260504194924 | 77 | 230 | 15.0 | 20.0 | 0.00 | 0.00 | 0.00 | 48 | 1006.2 |
| 20260504194420 | 76 | 194 | 15.0 | 18.0 | 0.00 | 0.00 | 0.00 | 49 | 1006.1 |
| 20260504193917 | 76 | 190 | 14.0 | 23.0 | 0.00 | 0.00 | 0.00 | 49 | 1006.1 |
| 20260504193414 | 76 | 244 | 5.0 | 8.0 | 0.00 | 0.00 | 0.00 | 50 | 1006.3 |
| 20260504192913 | 76 | 198 | 12.0 | 15.0 | 0.00 | 0.00 | 0.00 | 49 | 1006.4 |
| 20260504192409 | 77 | 230 | 15.0 | 26.0 | 0.00 | 0.00 | 0.00 | 50 | 1006.4 |
| 20260504191909 | 76 | 207 | 20.0 | 25.0 | 0.00 | 0.00 | 0.00 | 50 | 1006.2 |
| 20260504191406 | 76 | 218 | 10.0 | 16.0 | 0.00 | 0.00 | 0.00 | 50 | 1006.4 |
| 20260504190901 | 77 | 221 | 17.0 | 22.0 | 0.00 | 0.00 | 0.00 | 50 | 1006.5 |
| 20260504190357 | 76 | 221 | 13.0 | 22.0 | 0.00 | 0.00 | 0.00 | 50 | 1006.4 |
| 20260504185854 | 76 | 266 | 12.0 | 18.0 | 0.00 | 0.00 | 0.00 | 51 | 1006.5 |
| 20260504185351 | 76 | 185 | 14.0 | 21.0 | 0.00 | 0.00 | 0.00 | 52 | 1006.4 |
| 20260504184847 | 76 | 291 | 9.0 | 20.0 | 0.00 | 0.00 | 0.00 | 51 | 1006.5 |
| 20260504184343 | 75 | 213 | 11.0 | 17.0 | 0.00 | 0.00 | 0.00 | 51 | 1006.4 |
| 20260504183839 | 75 | 194 | 13.0 | 18.0 | 0.00 | 0.00 | 0.00 | 51 | 1006.6 |
| 20260504183337 | 76 | 209 | 20.0 | 27.0 | 0.00 | 0.00 | 0.00 | 52 | 1006.6 |
| 20260504182834 | 76 | 209 | 13.0 | 17.0 | 0.00 | 0.00 | 0.00 | 52 | 1006.6 |
| 20260504182331 | 75 | 240 | 16.0 | 25.0 | 0.00 | 0.00 | 0.00 | 52 | 1007.0 |
| 20260504181828 | 75 | 253 | 16.0 | 26.0 | 0.00 | 0.00 | 0.00 | 51 | 1006.9 |
| 20260504181325 | 75 | 202 | 9.0 | 17.0 | 0.00 | 0.00 | 0.00 | 51 | 1006.9 |
| 20260504180824 | 75 | 236 | 18.0 | 23.0 | 0.00 | 0.00 | 0.00 | 52 | 1007.1 |
| 20260504180322 | 75 | 214 | 12.0 | 14.0 | 0.00 | 0.00 | 0.00 | 52 | 1007.0 |
| 20260504175820 | 75 | 232 | 7.0 | 11.0 | 0.00 | 0.00 | 0.00 | 53 | 1006.9 |
| 20260504175316 | 75 | 212 | 15.0 | 20.0 | 0.00 | 0.00 | 0.00 | 51 | 1007.1 |
| 20260504174815 | 74 | 269 | 7.0 | 14.0 | 0.00 | 0.00 | 0.00 | 52 | 1007.1 |
| 20260504174312 | 75 | 223 | 9.0 | 11.0 | 0.00 | 0.00 | 0.00 | 52 | 1007.4 |
| 20260504173808 | 74 | 223 | 10.0 | 16.0 | 0.00 | 0.00 | 0.00 | 52 | 1007.2 |
| 20260504173305 | 74 | 226 | 6.0 | 15.0 | 0.00 | 0.00 | 0.00 | 53 | 1007.4 |
| 20260504172803 | 74 | 141 | 18.0 | 26.0 | 0.00 | 0.00 | 0.00 | 51 | 1007.3 |
| 20260504172259 | 74 | 212 | 9.0 | 15.0 | 0.00 | 0.00 | 0.00 | 52 | 1007.2 |
| 20260504171755 | 73 | 222 | 21.0 | 32.0 | 0.00 | 0.00 | 0.00 | 52 | 1007.2 |